Flag for U.S.A. Weather past 2 weeks in Oceanside, California, U.S.A.

Now
50 °F

Fog.


Feels Like: 50 °F
Forecast: 49 / 70 °F
Wind: No wind

Location: Oceanside Weather Reporting Station

Current Time: Dec 22, 2014 at 12:56:26 AM

Latest Report: Dec 22, 2014 at 12:03 AM


Visibility: 1 mi

Pressure: 30.04 "Hg

Humidity: 93%

Dew point: 48 °F

Location of OceansideLocation

Historic Weather in Oceanside — Graph

°F

Oceanside temperature yesterday

Maximum temperature yesterday: 66 °F (at 11:52 AM)
Minimum temperature yesterday: 47 °F (at 5:52 AM)
Average temperature yesterday: 56 °F

Past Weeks' High & Low Weather Summary

 TemperatureHumidityPressure
High77 °F (Dec 7, 11:52 AM)100% (Dec 12, 6:55 AM)30.23 "Hg (Dec 12, 6:55 AM)
Low42 °F (Dec 14, 5:52 AM)36% (Dec 9, 11:52 AM)29.88 "Hg (Dec 12, 4:52 AM)
Average56 °F80%30.06 "Hg
* Reported Dec 6 11:52 PM — Dec 21 11:59 PM, Oceanside, Weather by CustomWeather, © 2014

Note: Actual official high and low records may vary slightly from our data, if they occured in-between our weather recording intervals... More about our weather records

Advertising

Oceanside weather history for previous 24 hours

 ConditionsComfort  
Time TempWeatherWind HumidityBarometerVisibility
11:59 PM
Dec 21
50 °FFog.No wind93%30.04 "Hg2 mi
10:52 PM51 °FFog.No wind92%30.05 "Hg1 mi
10:03 PM51 °FFog.No wind96%30.04 "Hg2 mi
9:52 PM53 °FFog.No wind93%30.05 "Hg3 mi
8:52 PM53 °FFog.No wind93%30.05 "Hg5 mi
7:52 PM54 °FFog.No wind93%30.05 "Hg6 mi
6:52 PM56 °FClear.No wind90%30.04 "Hg7 mi
5:52 PM60 °FClear.No wind86%30.04 "Hg10 mi
4:52 PM61 °FClear.5 mph83%30.03 "Hg10 mi
3:52 PM63 °FSunny.5 mph78%30.03 "Hg10 mi
2:52 PM65 °FSunny.6 mph70%30.03 "Hg10 mi
1:52 PM65 °FSunny.7 mph68%30.04 "Hg10 mi
12:52 PM66 °FSunny.6 mph63%30.06 "Hg10 mi
11:52 AM66 °FSunny.3 mph56%30.09 "Hg10 mi
10:52 AM63 °FSunny.No wind63%30.12 "Hg9 mi
9:52 AM59 °FSunny.3 mph72%30.15 "Hg8 mi
8:52 AM54 °FSunny.3 mph80%30.16 "Hg8 mi
7:52 AM50 °FSunny.No wind89%30.14 "Hg7 mi
6:52 AM47 °FFog.3 mph93%30.13 "Hg6 mi
5:52 AM47 °FFog.3 mph93%30.12 "Hg4 mi
4:52 AM49 °FFog.3 mph93%30.09 "Hg5 mi
3:52 AM50 °FFog.3 mph93%30.11 "Hg5 mi
2:52 AM51 °FFog.3 mph89%30.12 "Hg5 mi
1:52 AM52 °FFog.3 mph93%30.14 "Hg6 mi
12:52 AM54 °FPassing clouds.3 mph90%30.14 "Hg7 mi
Weather by CustomWeather, © 2014

See weather overviewHow to use our weather pages